Weather History for Santa Barbara, CA

Change the Weather History Date:

Sunday, March 2, 2014

  Actual Average Record
Temperature  
Mean Temperature 56 °F 55 °F  
Max Temperature 61 °F 64 °F 86 °F (1972)
Min Temperature 51 °F 45 °F 32 °F (1971)
Degree Days  
Heating Degree Days 9 10  
Month to date heating degree days 17 20  
Since 1 July heating degree days 1252 1621  
Cooling Degree Days 0 0  
Month to date cooling degree days 0 0  
Year to date cooling degree days 0 0  
Growing Degree Days 6 (Base 50)    
Moisture  
Dew Point 52 °F    
Average Humidity 87    
Maximum Humidity 96    
Minimum Humidity 78    
Precipitation  
Precipitation 0.07 in 0.12 in 1.54 in (1978)
Month to date precipitation 0.83 0.24  
Year to date precipitation 4.67 7.70  
Since 1 July precipitation 6.03 13.41  
Sea Level Pressure  
Sea Level Pressure 30.08 in    
Wind  
Wind Speed 5 mph (East)    
Max Wind Speed 13 mph    
Max Gust Speed 16 mph    
Visibility 8 miles    
Events Rain    
T = Trace of Precipitation, MM = Missing Value Source: NWS Daily Summary

Daily Weather History Graph

Daily Weather History Graph

Search for Another Location

Airport:

Trip Planner

Search our weather history database for the weather conditions in past years. The results will help you decide how hot, cold, wet, or windy it might be!

Date:

Astronomy

Mar. 02, 2014 Rise Set
Actual Time 6:26 AM PST 5:56 PM PST
Civil Twilight 6:01 AM PST 6:21 PM PST
Nautical Twilight 5:32 AM PST 6:50 PM PST
Astronomical Twilight 5:03 AM PST 7:19 PM PST
Moon 7:06 AM PST (3/2) 7:51 PM PST (3/2)
Length of Visible Light 12h 19m
Length of Day
11h 29m
Waxing Crescent, 3% of the Moon is Illuminated
Mar 2
Waxing Crescent
Mar 8
First Quarter
Mar 16
Full
Mar 23
Last Quarter
Mar 30
New

Hourly Weather History & Observations

Time (PST) Temp. Dew Point Humidity Pressure Visibility Wind Dir Wind Speed Gust Speed Precip Events Conditions
12:04 AM 55.4 °F 51.8 °F 88% 29.95 in 10.0 mi ENE 3.5 mph - N/A   Overcast
12:53 AM 55.0 °F 51.1 °F 86% 29.96 in 8.0 mi ENE 9.2 mph - 0.00 in   Overcast
1:53 AM 54.0 °F 51.1 °F 90% 29.97 in 9.0 mi East 8.1 mph - 0.00 in   Overcast
2:53 AM 54.0 °F 51.1 °F 90% 29.98 in 10.0 mi East 6.9 mph - 0.00 in   Overcast
3:53 AM 55.0 °F 50.0 °F 83% 29.98 in 10.0 mi East 5.8 mph - N/A   Overcast
4:27 AM 55.4 °F 50.0 °F 82% 29.99 in 10.0 mi ENE 4.6 mph - N/A   Overcast
4:53 AM 55.0 °F 50.0 °F 83% 30.00 in 10.0 mi ENE 5.8 mph - N/A   Overcast
5:44 AM 55.4 °F 51.8 °F 88% 30.02 in 6.0 mi East 4.6 mph - 0.00 in Rain Light Rain
5:53 AM 55.0 °F 52.0 °F 89% 30.03 in 3.0 mi ESE 9.2 mph - 0.01 in Rain Light Rain
6:03 AM 53.6 °F 51.8 °F 94% 30.03 in 2.0 mi East 8.1 mph - 0.01 in Rain Light Rain
6:29 AM 53.6 °F 51.8 °F 94% 30.04 in 2.0 mi ENE 8.1 mph - 0.02 in Rain Light Rain
6:53 AM 54.0 °F 52.0 °F 93% 30.05 in 3.0 mi East 5.8 mph - 0.02 in   Overcast
7:53 AM 54.0 °F 51.1 °F 90% 30.08 in 8.0 mi East 8.1 mph - 0.00 in Rain Light Rain
8:14 AM 53.6 °F 51.8 °F 94% 30.09 in 2.5 mi East 3.5 mph - 0.01 in Rain Light Rain
8:53 AM 55.0 °F 51.1 °F 86% 30.10 in 2.5 mi East 5.8 mph - 0.03 in Rain Light Rain
9:53 AM 55.0 °F 53.1 °F 93% 30.13 in 2.0 mi East 6.9 mph - 0.01 in   Overcast
9:57 AM 55.4 °F 51.8 °F 88% 30.13 in 2.5 mi East 8.1 mph - N/A   Overcast
10:33 AM 55.4 °F 53.6 °F 94% 30.14 in 7.0 mi East 4.6 mph - N/A   Overcast
10:53 AM 57.0 °F 52.0 °F 83% 30.14 in 10.0 mi East 5.8 mph - N/A   Overcast
11:43 AM 57.2 °F 51.8 °F 82% 30.14 in 9.0 mi ESE 5.8 mph - N/A   Overcast
11:53 AM 57.9 °F 53.1 °F 84% 30.14 in 8.0 mi East 6.9 mph - N/A   Overcast
11:58 AM 57.2 °F 53.6 °F 88% 30.13 in 10.0 mi East 5.8 mph - N/A   Overcast
12:53 PM 59.0 °F 53.1 °F 81% 30.12 in 10.0 mi Variable 3.5 mph - N/A   Overcast
1:53 PM 61.0 °F 53.1 °F 75% 30.11 in 10.0 mi SSE 6.9 mph - N/A   Mostly Cloudy
2:53 PM 60.1 °F 53.1 °F 78% 30.12 in 10.0 mi SSE 6.9 mph - N/A   Mostly Cloudy
3:53 PM 59.0 °F 54.0 °F 83% 30.12 in 10.0 mi SSE 4.6 mph - N/A   Mostly Cloudy
4:53 PM 59.0 °F 53.1 °F 81% 30.12 in 10.0 mi West 4.6 mph - N/A   Scattered Clouds
5:53 PM 57.9 °F 53.1 °F 84% 30.13 in 10.0 mi WSW 5.8 mph - N/A   Mostly Cloudy
6:53 PM 55.9 °F 53.1 °F 90% 30.14 in 10.0 mi West 3.5 mph - N/A   Mostly Cloudy
7:53 PM 55.9 °F 53.1 °F 90% 30.15 in 10.0 mi Calm Calm - N/A   Mostly Cloudy
8:53 PM 55.0 °F 52.0 °F 89% 30.14 in 10.0 mi Calm Calm - N/A   Clear
9:40 PM 53.6 °F 51.8 °F 94% 30.15 in 10.0 mi Calm Calm - N/A   Partly Cloudy
9:53 PM 54.0 °F 51.1 °F 90% 30.15 in 8.0 mi Calm Calm - N/A   Partly Cloudy
10:53 PM 51.1 °F 50.0 °F 96% 30.14 in 7.0 mi Calm Calm - N/A   Mostly Cloudy
11:53 PM 52.0 °F 50.0 °F 93% 30.16 in 10.0 mi West 3.5 mph - N/A   Scattered Clouds